When you browse on this site, cookies collect data to enhance your experience and personalize the content and advertising you see.
Visit our Privacy Policy to learn more. By continuing to use the site, you agree to this use of cookies and data.
  • In Österreich
  • Länderverzeichnis
  • Für 7 Tage
  • Wassertemperatur
  • Satellitenkarten
  • Wetterkarte
  • News
  • Widgets
  • user-avatar
    Anmelden

    Stündliche Wetter Rochefort-en-Terre

    Heute, 20 Juli, Samstag

    Zeit Temperatur Niederschläge Wind Luftdruck Luftfeuchtigkeit
    00:00 +18°C° 0 mm 3 m/S 752 mmHg 95%
    01:00 +18°C° 0.2 mm 3 m/S 752 mmHg 95%
    02:00 +18°C° 0.2 mm 4 m/S 752 mmHg 95%
    03:00 +18°C° 0.2 mm 4 m/S 751 mmHg 95%
    04:00 +19°C° 0.2 mm 4 m/S 751 mmHg 95%
    05:00 +19°C° 0.2 mm 5 m/S 751 mmHg 94%
    06:00 +20°C° 0 mm 4 m/S 752 mmHg 94%
    07:00 +20°C° 0.3 mm 5 m/S 752 mmHg 89%
    08:00 +21°C° 0.3 mm 6 m/S 752 mmHg 83%
    09:00 +22°C° 0.3 mm 7 m/S 753 mmHg 77%
    10:00 +23°C° 0.2 mm 7 m/S 753 mmHg 70%
    11:00 +24°C° 0.2 mm 7 m/S 754 mmHg 63%
    12:00 +26°C° 0.2 mm 6 m/S 754 mmHg 56%
    13:00 +26°C° 0 mm 6 m/S 754 mmHg 55%
    14:00 +26°C° 0 mm 6 m/S 755 mmHg 53%
    15:00 +26°C° 0 mm 6 m/S 755 mmHg 51%
    16:00 +24°C° 0 mm 6 m/S 755 mmHg 56%
    17:00 +23°C° 0 mm 6 m/S 755 mmHg 60%
    18:00 +22°C° 0 mm 5 m/S 755 mmHg 65%
    19:00 +20°C° 0 mm 5 m/S 756 mmHg 75%
    20:00 +19°C° 0 mm 4 m/S 757 mmHg 84%
    21:00 +17°C° 0 mm 3 m/S 758 mmHg 94%
    22:00 +16°C° 0 mm 3 m/S 758 mmHg 94%
    23:00 +16°C° 0 mm 2 m/S 758 mmHg 95%

    Morgen, 21 Juli, Sonntag

    Zeit Temperatur Niederschläge Wind Luftdruck Luftfeuchtigkeit
    00:00 +15°C° 0 mm 2 m/S 759 mmHg 95%
    01:00 +15°C° 0 mm 1 m/S 759 mmHg 95%
    02:00 +15°C° 0 mm 1 m/S 759 mmHg 95%
    03:00 +14°C° 0 mm 1 m/S 759 mmHg 95%
    04:00 +14°C° 0 mm 0 m/S 759 mmHg 94%
    05:00 +15°C° 0 mm 0 m/S 759 mmHg 92%
    06:00 +15°C° 0 mm 0 m/S 759 mmHg 91%
    07:00 +17°C° 0 mm 0 m/S 760 mmHg 82%
    08:00 +21°C° 0 mm 1 m/S 760 mmHg 74%
    09:00 +23°C° 0 mm 1 m/S 760 mmHg 66%
    10:00 +24°C° 0 mm 2 m/S 760 mmHg 61%
    11:00 +25°C° 0 mm 2 m/S 760 mmHg 57%
    12:00 +27°C° 0 mm 3 m/S 760 mmHg 52%
    13:00 +27°C° 0 mm 3 m/S 760 mmHg 53%
    14:00 +27°C° 0 mm 3 m/S 760 mmHg 53%
    15:00 +27°C° 0 mm 4 m/S 760 mmHg 54%
    16:00 +26°C° 0 mm 4 m/S 760 mmHg 57%
    17:00 +25°C° 0 mm 3 m/S 760 mmHg 59%
    18:00 +25°C° 0 mm 3 m/S 760 mmHg 62%
    19:00 +22°C° 0 mm 3 m/S 760 mmHg 71%
    20:00 +20°C° 0 mm 3 m/S 761 mmHg 80%
    21:00 +18°C° 0 mm 2 m/S 761 mmHg 89%
    22:00 +17°C° 0 mm 2 m/S 761 mmHg 91%
    23:00 +17°C° 0 mm 2 m/S 761 mmHg 92%

    übermorgen, 22 Juli, Montag

    Zeit Temperatur Niederschläge Wind Luftdruck Luftfeuchtigkeit
    00:00 +16°C° 0 mm 1 m/S 761 mmHg 93%
    01:00 +16°C° 0 mm 1 m/S 761 mmHg 93%
    02:00 +16°C° 0 mm 1 m/S 760 mmHg 92%
    03:00 +16°C° 0 mm 1 m/S 760 mmHg 92%
    04:00 +16°C° 0 mm 1 m/S 760 mmHg 90%
    05:00 +18°C° 0 mm 1 m/S 760 mmHg 89%
    06:00 +17°C° 0 mm 2 m/S 760 mmHg 87%
    07:00 +21°C° 0 mm 1 m/S 760 mmHg 78%
    08:00 +23°C° 0 mm 1 m/S 760 mmHg 69%
    09:00 +25°C° 0 mm 1 m/S 760 mmHg 61%
    10:00 +27°C° 0 mm 1 m/S 760 mmHg 53%
    11:00 +29°C° 0 mm 1 m/S 760 mmHg 46%
    12:00 +31°C° 0 mm 1 m/S 760 mmHg 38%
    13:00 +31°C° 0 mm 1 m/S 759 mmHg 37%
    14:00 +32°C° 0 mm 2 m/S 759 mmHg 36%
    15:00 +32°C° 0 mm 2 m/S 759 mmHg 34%
    16:00 +32°C° 0 mm 2 m/S 758 mmHg 38%
    17:00 +31°C° 0 mm 2 m/S 758 mmHg 41%
    18:00 +31°C° 0 mm 3 m/S 758 mmHg 45%
    19:00 +28°C° 0 mm 3 m/S 758 mmHg 56%
    20:00 +25°C° 0 mm 3 m/S 758 mmHg 67%
    21:00 +21°C° 0 mm 4 m/S 758 mmHg 78%
    22:00 +20°C° 0 mm 3 m/S 758 mmHg 82%
    23:00 +20°C° 0 mm 3 m/S 757 mmHg 85%

    23 Juli, Dienstag

    Zeit Temperatur Niederschläge Wind Luftdruck Luftfeuchtigkeit
    00:00 +19°C° 0 mm 3 m/S 757 mmHg 89%
    01:00 +20°C° 0 mm 3 m/S 756 mmHg 83%
    02:00 +20°C° 0 mm 2 m/S 756 mmHg 78%
    03:00 +20°C° 0 mm 2 m/S 756 mmHg 73%
    04:00 +21°C° 0 mm 2 m/S 755 mmHg 70%
    05:00 +21°C° 0 mm 3 m/S 755 mmHg 67%
    06:00 +22°C° 0 mm 3 m/S 755 mmHg 65%
    07:00 +25°C° 0.1 mm 3 m/S 755 mmHg 61%
    08:00 +28°C° 0.1 mm 3 m/S 755 mmHg 57%
    09:00 +30°C° 0.1 mm 3 m/S 754 mmHg 52%
    10:00 +34°C° 0.1 mm 4 m/S 754 mmHg 46%
    11:00 +37°C° 0.1 mm 4 m/S 754 mmHg 39%
    12:00 +40°C° 0.1 mm 4 m/S 754 mmHg 33%
    13:00 +38°C° 0 mm 4 m/S 753 mmHg 37%
    14:00 +36°C° 0 mm 5 m/S 753 mmHg 41%
    15:00 +35°C° 0 mm 5 m/S 753 mmHg 45%
    16:00 +34°C° 0 mm 5 m/S 752 mmHg 51%
    17:00 +32°C° 0 mm 4 m/S 752 mmHg 56%
    18:00 +30°C° 0 mm 4 m/S 752 mmHg 61%
    19:00 +27°C° 0 mm 3 m/S 752 mmHg 71%
    20:00 +25°C° 0 mm 3 m/S 753 mmHg 81%
    21:00 +21°C° 0 mm 2 m/S 753 mmHg 91%
    22:00 +21°C° 0 mm 2 m/S 753 mmHg 91%
    23:00 +21°C° 0 mm 2 m/S 754 mmHg 91%

    24 Juli, Mittwoch

    Zeit Temperatur Niederschläge Wind Luftdruck Luftfeuchtigkeit
    00:00 +20°C° 0 mm 2 m/S 754 mmHg 92%
    01:00 +21°C° 0 mm 1 m/S 754 mmHg 92%
    02:00 +20°C° 0 mm 1 m/S 753 mmHg 92%
    03:00 +20°C° 0 mm 1 m/S 753 mmHg 93%
    04:00 +21°C° 0 mm 1 m/S 753 mmHg 91%
    05:00 +21°C° 0 mm 1 m/S 754 mmHg 89%
    06:00 +22°C° 0 mm 1 m/S 754 mmHg 87%
    07:00 +24°C° 0 mm 1 m/S 754 mmHg 79%
    08:00 +26°C° 0 mm 1 m/S 754 mmHg 71%
    09:00 +28°C° 0 mm 1 m/S 754 mmHg 63%
    10:00 +30°C° 0 mm 1 m/S 754 mmHg 57%
    11:00 +32°C° 0 mm 1 m/S 754 mmHg 50%
    12:00 +34°C° 0 mm 2 m/S 753 mmHg 43%
    13:00 +35°C° 0 mm 2 m/S 753 mmHg 42%
    14:00 +35°C° 0 mm 3 m/S 753 mmHg 40%
    15:00 +35°C° 0 mm 4 m/S 752 mmHg 39%
    16:00 +34°C° 0 mm 4 m/S 752 mmHg 43%
    17:00 +32°C° 0 mm 4 m/S 751 mmHg 47%
    18:00 +29°C° 0 mm 3 m/S 751 mmHg 51%
    19:00 +27°C° 0 mm 3 m/S 751 mmHg 59%
    20:00 +24°C° 0 mm 2 m/S 751 mmHg 67%
    21:00 +20°C° 0 mm 2 m/S 751 mmHg 75%
    22:00 +21°C° 0 mm 1 m/S 751 mmHg 76%
    23:00 +21°C° 0 mm 1 m/S 751 mmHg 76%

    25 Juli, Donnerstag

    Zeit Temperatur Niederschläge Wind Luftdruck Luftfeuchtigkeit
    00:00 +21°C° 0 mm 1 m/S 750 mmHg 76%
    01:00 +21°C° 0 mm 1 m/S 750 mmHg 75%
    02:00 +21°C° 0 mm 1 m/S 749 mmHg 73%
    03:00 +22°C° 0 mm 1 m/S 749 mmHg 72%
    04:00 +21°C° 0 mm 2 m/S 749 mmHg 72%
    05:00 +21°C° 0 mm 2 m/S 749 mmHg 73%
    06:00 +21°C° 0 mm 3 m/S 749 mmHg 73%
    07:00 +22°C° 0 mm 3 m/S 750 mmHg 71%
    08:00 +24°C° 0 mm 3 m/S 750 mmHg 70%
    09:00 +25°C° 0 mm 3 m/S 750 mmHg 68%
    10:00 +25°C° 0 mm 4 m/S 750 mmHg 66%
    11:00 +26°C° 0 mm 5 m/S 751 mmHg 63%
    12:00 +27°C° 0 mm 6 m/S 751 mmHg 61%
    13:00 +27°C° 0 mm 6 m/S 751 mmHg 59%
    14:00 +27°C° 0 mm 6 m/S 752 mmHg 57%
    15:00 +27°C° 0 mm 6 m/S 752 mmHg 55%
    16:00 +26°C° 0 mm 6 m/S 752 mmHg 56%
    17:00 +23°C° 0 mm 5 m/S 752 mmHg 58%
    18:00 +22°C° 0 mm 5 m/S 753 mmHg 60%
    19:00 +20°C° 0 mm 4 m/S 753 mmHg 67%
    20:00 +19°C° 0 mm 3 m/S 753 mmHg 74%
    21:00 +18°C° 0 mm 3 m/S 754 mmHg 81%
    22:00 +17°C° 0 mm 3 m/S 754 mmHg 84%
    23:00 +17°C° 0 mm 3 m/S 754 mmHg 86%
    Mehr zeigen